Location: *
(50.3194°N, 7.1067°E)
Time: 15:54:42
(UTC+00:00)

ARGOS - Pass Details

Date: 22 September 2019
Orbit: 821 x 834 km, 98.5° (Epoch: 22 October)

Event Time Altitude Azimuth Distance (km) Brightness Sun altitude
Exits shadow 17:57:46 - 116° (ESE) 2,931 5.4 -5.2°
Reaches altitude 10° 17:59:20 10° 107° (ESE) 2,428 4.9 -5.4°
Maximum altitude 18:03:25 23° 57° (ENE) 1,710 4.4 -6.1°
Drops below altitude 10° 18:07:32 10° 8° (N) 2,446 5.6 -6.7°
Sets 18:10:21 0° 354° (N) 3,386 6.5 -7.2°
